User: anonymous   Login
Location: Newark
(10.3333°N, 37.7167°E)
Time: 02:38:02
(UTC+00:00)
Language:

LightSail 2 - Orbit

View from above orbital plane
View from above orbital plane
View from above satellite
View from above satellite

Ground track
Ground track

The orbit data is extracted from the following two-line orbital elements,

1 44420U 19036AC  20057.47229665  .00005160  00000-0  11353-2 0  9995
2 44420  24.0108  94.8306 0018251  13.1574 346.9372 14.54564211 33989
Epoch (UTC): 26 February 2020 11:20:06
Eccentricity: 0.0018251
inclination: 24.0108°
perigee height: 698 km
apogee height: 724 km
right ascension of ascending node: 94.8306°
argument of perigee: 13.1574°
revolutions per day: 14.54564211
mean anomaly at epoch: 346.9372°
orbit number at epoch: 3398

The dashed part of the orbit path shows where the satellite is in the earth's shadow,  

DLR